2019-096A (44905 NORAD) Tracking and Keplerian Element Data

This shows tracking and keplerian element data for the satellite.

Feedback or suggestion? Click here.




ElementValue
Catalog44905
Name2019-096A
Epoch Orbit267
Epoch Day17.4705617
Epoch Year2020
RAAN97.0058
Inclination82.5211
Eccentricity0.0004729
Argument of Perigee258.6226
Mean Anonmoly101.4315
Mean Motion12.41076365
Decay Rate2E-07
L11 44905U 19096A 20017.47056170 .00000020 00000-0 72794-4 0 9992
L22 44905 82.5211 97.0058 0004729 258.6226 101.4315 12.41076365 2670

Live tracking and technical data element details for 2019-096A (NORAD 44905). 2019-096A can be tracked NOW for your location showing map with azimuth and elevation plus other details from your city location.

Track the satellite on the map from your city or location and see movement details for azimuth, elevation, latitude, longitude, range, height, and movement on the map or in text.







IsCatalogInMostPopularTable: catalog: 44905, numindb: 4
Update: records affected: 1



GetName: 44905 2019-096A

Hit Count: updated at: Mon, 20 Jan 2020 03:28:11 GMT